User: anonymous   Login
Location: Unspecified
(0.0000°N, 0.0000°E)
Time: 23:53:35
(UTC+00:00)
Language:

DMSP 5D-3 F17 - Orbit

View from above orbital plane
View from above orbital plane
View from above satellite
View from above satellite

Ground track
Ground track

The orbit data is extracted from the following two-line orbital elements,

1 29522U 06050A   24176.61377741  .00000091  00000-0  69895-4 0  9998
2 29522  98.7431 187.0365 0009366 324.6093  35.4458 14.14491143910242
Epoch (UTC): 24 June 2024 14:43:50
Eccentricity: 0.0009366
inclination: 98.7431°
perigee height: 837 km
apogee height: 851 km
right ascension of ascending node: 187.0365°
argument of perigee: 324.6093°
revolutions per day: 14.14491143
mean anomaly at epoch: 35.4458°
orbit number at epoch: 91024

The dashed part of the orbit path shows where the satellite is in the earth's shadow,  

DLR